Orbital Elements at Epoch 2459200.5 (2020-Dec-17.0) TDB
Reference: JPL 19 (heliocentric ecliptic J2000)
Element | Value | Uncertainty (1-sigma) | Units |
e | .1499670143563181 | 3.0353e-08 | |
a | 2.226512116347438 | 7.6204e-09 | au |
q | 1.892608741830645 | 6.8455e-08 | au |
i | 5.34940924962616 | 4.0898e-06 | deg |
node | 45.68701395465994 | 3.4056e-05 | deg |
peri | 242.4500397771333 | 3.6375e-05 | deg |
M | 129.1313199886454 | 1.2887e-05 | deg |
tp | 2458765.223610259970 (2019-Oct-08.72361026) | 4.3052e-05 | TDB |
period | 1213.489495191325 3.32 | 6.2299e-06 1.706e-08 | d yr |
n | .2966651144707606 | 1.523e-09 | deg/d |
Q | 2.56041549086423 | 8.7633e-09 | au |
|
| | Orbit Determination Parameters
Additional Information
|